FW7360 Weather Reports


time (UTC)temp
F
wind
direction
speed
knots
gust
knots
rain 1hr
in
rain 24hr
in
rain mn
in
humidity
%
barometer
mb
20260505070427 57 0 9.6 11.3 0.00 0.00 0.00 44 1009.4
20260505065922 57 8 5.2 12.2 0.00 0.00 0.00 45 1009.0
20260505065419 58 9 4.3 8.7 0.00 0.00 0.00 44 1009.3
20260505064916 57 341 7.0 8.7 0.00 0.00 0.00 44 1009.1
20260505064413 58 350 2.6 9.6 0.00 0.00 0.00 45 1008.7
20260505063912 58 5 6.1 14.8 0.00 0.00 0.00 44 1008.9
20260505063407 58 357 4.3 8.7 0.00 0.00 0.00 44 1009.0
20260505062904 58 0 7.8 8.7 0.00 0.00 0.00 44 1009.1
20260505062401 58 32 5.2 7.0 0.00 0.00 0.00 45 1008.9
20260505061858 59 10 5.2 13.9 0.00 0.00 0.00 44 1008.4
20260505061357 59 342 12.2 17.4 0.00 0.00 0.00 43 1008.4
20260505060854 59 314 7.8 13.0 0.00 0.00 0.00 45 1007.7
20260505060350 59 354 6.1 11.3 0.00 0.00 0.00 47 1007.7
20260505055846 59 330 4.3 14.8 0.00 0.00 0.00 47 1007.4
20260505055342 60 350 7.8 9.6 0.00 0.00 0.00 44 1007.5
20260505054840 61 358 10.4 14.8 0.00 0.00 0.00 42 1007.2
20260505054337 61 346 6.1 14.8 0.00 0.00 0.00 42 1007.3
20260505053835 62 334 6.1 17.4 0.00 0.00 0.00 41 1007.1
20260505053332 62 340 7.0 15.6 0.00 0.00 0.00 42 1006.8
20260505052828 62 14 6.1 15.6 0.00 0.00 0.00 41 1006.6
20260505052325 63 346 12.2 19.1 0.00 0.00 0.00 40 1006.4
20260505051823 63 31 7.0 21.7 0.00 0.00 0.00 40 1006.5
20260505051320 63 358 11.3 14.8 0.00 0.00 0.00 40 1006.4
20260505050818 64 337 7.8 13.0 0.00 0.00 0.00 40 1005.8
20260505050317 64 4 9.6 17.4 0.00 0.00 0.00 39 1006.0
20260505041746 68 359 7.8 8.7 0.00 0.00 0.00 39 1005.6
20260505041243 68 2 6.1 12.2 0.00 0.00 0.00 39 1005.0
20260505040741 68 347 5.2 13.9 0.00 0.00 0.00 39 1005.1
20260505040238 68 24 4.3 7.8 0.00 0.00 0.00 40 1005.2
20260505035735 69 317 4.3 7.8 0.00 0.00 0.00 41 1005.3
20260505035230 69 333 5.2 7.0 0.00 0.00 0.00 41 1005.3
20260505034728 69 339 7.0 13.0 0.00 0.00 0.00 39 1005.4
20260505034224 69 352 4.3 5.2 0.00 0.00 0.00 41 1005.2
20260505033721 70 358 6.1 7.8 0.00 0.00 0.00 40 1005.3
20260505033219 70 28 5.2 9.6 0.00 0.00 0.00 40 1005.0
20260505032717 71 2 6.1 9.6 0.00 0.00 0.00 41 1004.8
20260505032212 71 324 8.7 12.2 0.00 0.00 0.00 41 1004.8
20260505031710 70 344 3.5 6.1 0.00 0.00 0.00 48 1004.5
20260505031206 71 288 1.7 6.1 0.00 0.00 0.00 48 1004.6
20260505030703 71 301 3.5 7.8 0.00 0.00 0.00 48 1004.3
20260505030159 70 349 6.1 7.8 0.00 0.00 0.00 50 1004.1
20260505025655 70 9 3.5 5.2 0.00 0.00 0.00 56 1004.0
20260505025154 69 308 5.2 6.1 0.00 0.00 0.00 60 1003.8
20260505024651 67 332 5.2 6.1 0.00 0.00 0.00 65 1003.9
20260505024148 63 264 1.7 5.2 0.00 0.00 0.00 77 1003.7
20260505023646 63 312 2.6 2.6 0.00 0.00 0.00 81 1003.3
20260505023143 64 264 0.0 0.0 0.00 0.00 0.00 79 1003.1
20260505022640 64 277 0.0 0.0 0.00 0.00 0.00 78 1003.1
20260505022137 65 248 0.0 0.0 0.00 0.00 0.00 77 1002.8
20260505021634 65 284 0.0 0.0 0.00 0.00 0.00 77 1003.0
20260505021130 65 276 0.0 0.0 0.00 0.00 0.00 79 1002.9
20260505020626 65 250 0.0 0.0 0.00 0.00 0.00 78 1002.9
20260505020122 65 249 0.0 0.0 0.00 0.00 0.00 80 1002.9
20260505015619 66 259 0.0 0.0 0.00 0.00 0.00 75 1002.6
20260505015116 66 279 0.0 0.0 0.00 0.00 0.00 77 1002.6
20260505014613 66 306 0.0 0.0 0.00 0.00 0.00 76 1002.6
20260505014110 68 301 0.0 0.0 0.00 0.00 0.00 72 1002.4
20260505013607 69 250 0.0 0.0 0.00 0.00 0.00 66 1002.3
20260505013104 68 247 0.0 0.0 0.00 0.00 0.00 70 1002.3
20260505012602 69 247 0.0 0.0 0.00 0.00 0.00 72 1001.9
20260505012059 70 258 0.0 0.0 0.00 0.00 0.00 67 1002.1
20260505011554 71 259 0.0 0.0 0.00 0.00 0.00 61 1002.2
20260505011052 73 259 0.0 0.9 0.00 0.00 0.00 59 1002.1
20260505010547 74 247 0.0 0.9 0.00 0.00 0.00 56 1001.9
20260505010044 74 254 0.0 0.0 0.00 0.00 0.00 55 1002.0
20260505005540 75 250 0.0 0.9 0.00 0.00 0.00 54 1002.0
20260505005038 76 239 0.0 0.0 0.00 0.00 0.00 53 1002.0
20260505004535 76 239 0.0 0.0 0.00 0.00 0.00 52 1002.0
20260505004032 77 239 0.0 0.0 0.00 0.00 0.00 51 1002.1
20260505003529 77 239 0.0 1.7 0.00 0.00 0.00 51 1001.9
20260505003026 77 228 0.9 1.7 0.00 0.00 0.00 51 1001.8
20260505002521 78 233 0.0 0.9 0.00 0.00 0.00 49 1002.1
20260505002020 78 184 1.7 1.7 0.00 0.00 0.00 48 1001.9
20260505001517 78 245 0.9 0.9 0.00 0.00 0.00 48 1002.0
20260505001014 78 165 1.7 1.7 0.00 0.00 0.00 48 1001.9
20260505000512 78 166 1.7 2.6 0.00 0.00 0.00 47 1001.9
20260505000009 78 118 2.6 2.6 0.00 0.00 0.00 47 1002.0
20260504235506 79 187 2.6 2.6 0.00 0.00 0.00 45 1002.2
20260504235002 79 163 2.6 4.3 0.00 0.00 0.00 45 1002.0
20260504234459 79 181 2.6 4.3 0.00 0.00 0.00 44 1001.6
20260504233956 79 154 3.5 4.3 0.00 0.00 0.00 43 1001.9
20260504233451 79 181 3.5 6.1 0.00 0.00 0.00 43 1001.8
20260504232949 79 218 0.9 5.2 0.00 0.00 0.00 45 1001.8
20260504232446 80 135 6.1 7.0 0.00 0.00 0.00 44 1002.1
20260504231943 80 166 3.5 5.2 0.00 0.00 0.00 45 1001.9
20260504231439 80 164 2.6 2.6 0.00 0.00 0.00 44 1001.8
20260504230935 80 177 2.6 4.3 0.00 0.00 0.00 43 1002.0
20260504230432 80 174 2.6 4.3 0.00 0.00 0.00 42 1001.9
20260504225932 80 130 2.6 2.6 0.00 0.00 0.00 42 1001.8
20260504225428 80 170 3.5 5.2 0.00 0.00 0.00 43 1001.9
20260504224925 81 137 2.6 4.3 0.00 0.00 0.00 41 1001.7
20260504224421 81 143 3.5 6.1 0.00 0.00 0.00 40 1001.8
20260504223919 81 170 3.5 4.3 0.00 0.00 0.00 41 1001.8
20260504223414 81 164 5.2 7.0 0.00 0.00 0.00 40 1001.9
20260504222910 82 185 6.1 7.0 0.00 0.00 0.00 39 1001.6
20260504222407 82 146 6.1 7.8 0.00 0.00 0.00 38 1001.7
20260504221906 82 181 6.1 7.8 0.00 0.00 0.00 39 1001.9
20260504221402 83 161 4.3 7.0 0.00 0.00 0.00 38 1001.8
20260504220859 83 182 4.3 7.0 0.00 0.00 0.00 39 1001.9
20260504220356 83 162 4.3 8.7 0.00 0.00 0.00 41 1001.9
20260504215853 83 121 4.3 9.6 0.00 0.00 0.00 41 1001.9
20260504215349 83 134 5.2 7.0 0.00 0.00 0.00 39 1002.0
20260504214846 82 139 2.6 6.1 0.00 0.00 0.00 41 1002.2
20260504214343 82 170 2.6 7.0 0.00 0.00 0.00 41 1002.1
20260504213840 81 169 5.2 7.0 0.00 0.00 0.00 42 1002.1
20260504213335 82 154 7.0 7.8 0.00 0.00 0.00 42 1002.3
20260504212833 81 241 2.6 6.1 0.00 0.00 0.00 42 1002.0
20260504212329 81 161 4.3 6.1 0.00 0.00 0.00 42 1002.1
20260504211827 81 168 3.5 6.1 0.00 0.00 0.00 43 1002.2
20260504211322 81 132 5.2 6.1 0.00 0.00 0.00 41 1002.2
20260504210820 81 166 2.6 5.2 0.00 0.00 0.00 43 1002.4
20260504210317 81 181 4.3 7.0 0.00 0.00 0.00 41 1002.3
20260504205814 81 158 4.3 7.0 0.00 0.00 0.00 43 1002.2
20260504205312 81 140 3.5 5.2 0.00 0.00 0.00 40 1002.3
20260504204810 82 171 7.0 7.8 0.00 0.00 0.00 39 1002.5
20260504204308 82 188 3.5 7.0 0.00 0.00 0.00 41 1002.5
20260504203807 82 204 3.5 5.2 0.00 0.00 0.00 40 1002.4
20260504203304 82 218 4.3 5.2 0.00 0.00 0.00 41 1002.6
20260504202758 82 152 4.3 7.0 0.00 0.00 0.00 39 1002.4
20260504202256 82 205 2.6 4.3 0.00 0.00 0.00 43 1002.7
20260504201753 82 229 1.7 2.6 0.00 0.00 0.00 42 1002.8
20260504201250 82 202 2.6 6.1 0.00 0.00 0.00 42 1002.5
20260504200748 82 195 7.8 8.7 0.00 0.00 0.00 40 1002.8
20260504200243 82 200 5.2 9.6 0.00 0.00 0.00 41 1002.6
20260504195740 82 141 6.1 7.8 0.00 0.00 0.00 40 1002.8
20260504195236 82 176 6.1 8.7 0.00 0.00 0.00 38 1002.8
20260504194733 82 144 3.5 4.3 0.00 0.00 0.00 39 1002.9
20260504194229 82 257 5.2 6.1 0.00 0.00 0.00 39 1002.7
20260504193726 83 110 7.0 7.8 0.00 0.00 0.00 39 1002.8
20260504193223 83 223 1.7 5.2 0.00 0.00 0.00 39 1002.8
20260504192722 82 167 4.3 7.0 0.00 0.00 0.00 40 1002.8
20260504192219 82 255 2.6 5.2 0.00 0.00 0.00 35 1002.8
20260504191718 82 230 4.3 6.1 0.00 0.00 0.00 36 1002.9
20260504191214 82 251 5.2 7.0 0.00 0.00 0.00 38 1002.8
20260504190709 82 124 4.3 7.0 0.00 0.00 0.00 38 1002.8
20260504190206 83 158 1.7 4.3 0.00 0.00 0.00 41 1002.8
20260504185703 82 236 1.7 4.3 0.00 0.00 0.00 42 1002.8
20260504185159 82 165 2.6 6.1 0.00 0.00 0.00 42 1002.7
20260504184655 81 208 2.6 7.0 0.00 0.00 0.00 38 1003.0
20260504184151 82 154 5.2 6.1 0.00 0.00 0.00 40 1002.9
20260504183648 81 158 3.5 6.1 0.00 0.00 0.00 42 1002.8
20260504183145 81 116 2.6 7.0 0.00 0.00 0.00 45 1002.7
20260504182643 81 136 6.1 7.8 0.00 0.00 0.00 42 1002.8
20260504182140 81 218 3.5 6.1 0.00 0.00 0.00 41 1003.1
20260504181637 80 234 4.3 5.2 0.00 0.00 0.00 43 1003.0
20260504181135 80 133 6.1 7.0 0.00 0.00 0.00 42 1002.9
20260504180634 80 187 4.3 6.1 0.00 0.00 0.00 44 1003.1
20260504180132 79 160 3.5 7.0 0.00 0.00 0.00 42 1003.1
20260504175629 79 161 4.3 8.7 0.00 0.00 0.00 42 1003.1
20260504175125 79 180 3.5 4.3 0.00 0.00 0.00 43 1003.2
20260504174624 79 171 6.1 7.0 0.00 0.00 0.00 41 1003.3
20260504174120 79 215 7.0 8.7 0.00 0.00 0.00 41 1003.2
20260504173617 78 215 2.6 7.8 0.00 0.00 0.00 43 1003.3
20260504173115 78 204 4.3 7.0 0.00 0.00 0.00 43 1003.3
20260504172611 78 195 4.3 7.8 0.00 0.00 0.00 43 1003.3
20260504172108 78 202 0.9 7.0 0.00 0.00 0.00 46 1003.4
20260504171604 78 168 5.2 9.6 0.00 0.00 0.00 45 1003.4
20260504171101 78 219 2.6 6.1 0.00 0.00 0.00 46 1003.3
20260504170557 77 175 3.5 7.8 0.00 0.00 0.00 49 1003.5
20260504150941 72 222 6.1 7.0 0.00 0.00 0.00 51 1003.5
20260504150438 72 216 1.7 6.1 0.00 0.00 0.00 53 1003.5
20260504140904 68 229 7.0 8.7 0.00 0.00 0.00 56 1003.8
20260504140400 68 183 6.1 7.8 0.00 0.00 0.00 57 1004.0
20260504130325 64 150 0.0 5.2 0.00 0.00 0.00 62 1003.6
20260504120248 59 171 1.7 4.3 0.00 0.00 0.00 68 1003.7
20260504110716 58 152 2.6 6.1 0.00 0.00 0.00 70 1003.6
20260504110212 57 143 4.3 5.2 0.00 0.00 0.00 70 1003.6
20260504100131 52 254 0.0 0.0 0.00 0.00 0.00 87 1004.4
20260504081524 58 247 0.0 0.9 0.00 0.00 0.00 70 1005.1
20260504081019 60 265 0.0 0.0 0.00 0.00 0.00 64 1005.4
20260504080516 60 257 0.0 0.0 0.00 0.00 0.00 62 1005.3